Starlink 6379

operational
NORAD ID: 57343 Int'l Des: 2023-099 Owner: SPXS Country: US Constellation: starlink
LEOCIRCULAR

About Starlink 6379

Description loading...

Live Position

Loading 3D Globe...

Upcoming Passes

Altitude History

Altitude vs Time

uPlot chart will show altitude changes over time

Two-Line Element Set

1 57343U 23099R 25257.36567594 -.00000304 00000-0 -74524-5 0 9997
2 57343 43.0039 126.9990 0001213 268.0590 92.0114 15.02535610119596
Epoch: Sep 14, 2025 • Age: 38 hours

Current Status

Altitude 558.7 km
Velocity 7.58 km/s
Sub-Earth Point 0.32°N, 137.46°E
Launch Date Jul 16, 2023
Age 2.1 years
Type internet

Technical Details

Classification Payload
Mass 305.00 kg
Dry Mass 290.00 kg
Total Mass 305.00 kg
Length 0.20 m
Diameter 2.80 m
Span 9.00 m
Shape Box + pan
Manufacturer SPXS
Bus Type Starlink
Phase Status In Orbit
Owner/State SPXS/US

Large Constellations

Loading constellations...